Location: Quesnel
(52.9830°N, 122.4830°W)
Time: 12:09:35
(UTC-07:00)

ISS - All Passes

Search period start: 31 October 2014 00:00
Search period end: 09 November 2014 23:00
Orbit: 412 x 417 km, 51.6° (Epoch: 31 October)

Date Brightness Start Highest point End Pass type
(mag) Time Alt. Az. Time Alt. Az. Time Alt. Az.
31 Oct - 10:49:20 10° S 10:51:18 15° SE 10:53:17 10° ESE daylight
31 Oct - 12:24:13 10° SW 12:27:26 46° SSE 12:30:39 10° E daylight
31 Oct - 14:00:38 10° W 14:03:58 71° S 14:07:18 10° E daylight
31 Oct - 15:37:18 10° W 15:40:29 41° SSW 15:43:39 10° SE daylight
31 Oct - 17:15:02 10° WSW 17:16:32 13° SW 17:18:02 10° SSW daylight
01 Nov - 10:02:16 10° SE 10:02:23 10° SE 10:02:30 10° SE daylight
01 Nov - 11:35:16 10° SW 11:38:20 35° SSE 11:41:26 10° E daylight
01 Nov - 13:11:29 10° W 13:14:48 70° S 13:18:08 10° E daylight
01 Nov - 14:48:06 10° W 14:51:22 52° SSW 14:54:38 10° ESE daylight
01 Nov - 16:25:13 10° W 16:27:34 18° SW 16:29:55 10° S daylight
02 Nov - 09:46:24 10° SSW 09:49:15 27° SSE 09:52:06 10° E daylight
02 Nov - 11:22:18 10° WSW 11:25:36 64° S 11:28:55 10° E daylight
02 Nov - 12:58:53 10° W 13:02:11 62° S 13:05:29 10° ESE daylight
02 Nov - 14:35:43 10° W 14:38:31 25° SSW 14:41:19 10° SSE daylight
03 Nov - 08:57:42 10° SSW 09:00:09 19° SE 09:02:37 10° E daylight
03 Nov - 10:33:07 10° WSW 10:36:23 54° SSE 10:39:39 10° E daylight
03 Nov - 12:09:37 10° W 12:12:57 69° S 12:16:16 10° ESE daylight
03 Nov - 13:46:20 10° W 13:49:23 33° SSW 13:52:26 10° SE daylight
04 Nov - 08:09:21 10° S 08:11:04 14° SE 08:12:48 10° ESE daylight
04 Nov - 09:43:58 10° SW 09:47:09 43° SSE 09:50:20 10° E daylight
04 Nov - 11:20:20 10° W 11:23:40 71° S 11:26:59 10° E daylight
04 Nov - 12:56:59 10° W 13:00:11 43° SSW 13:03:22 10° SE daylight
04 Nov - 14:34:29 10° WSW 14:36:16 14° SW 14:38:02 10° S daylight
05 Nov - 08:54:53 10° SW 08:57:54 33° SSE 09:00:56 10° E daylight
05 Nov - 10:31:01 10° WSW 10:34:20 69° S 10:37:39 10° E daylight
05 Nov - 12:07:37 10° W 12:10:54 54° SSW 12:14:10 10° ESE daylight
05 Nov - 13:44:38 10° W 13:47:07 20° SSW 13:49:36 10° SSE daylight
06 Nov - 08:05:54 10° SSW 08:08:39 24° SSE 08:11:26 10° E daylight
06 Nov - 09:41:41 10° WSW 09:44:59 61° S 09:48:17 10° E daylight
06 Nov - 11:18:14 10° W 11:21:33 64° S 11:24:51 10° ESE daylight
06 Nov - 12:55:02 10° W 12:57:54 27° SSW 13:00:46 10° SSE daylight
07 Nov - 07:17:07 10° S 07:19:25 18° SE 07:21:43 10° E daylight
07 Nov - 08:52:22 10° WSW 08:55:36 51° SSE 08:58:51 10° E daylight
07 Nov - 10:28:49 10° W 10:32:09 70° S 10:35:28 10° E daylight
07 Nov - 12:05:30 10° W 12:08:36 36° SSW 12:11:41 10° SE daylight
07 Nov - 13:44:04 10° SW 13:44:33 10° SW 13:45:02 10° SSW daylight
08 Nov - 06:28:49 10° SSE 06:30:11 12° SE 06:31:34 10° ESE visible
08 Nov - 08:03:04 10° SW 08:06:13 40° SSE 08:09:22 10° E daylight
08 Nov - 09:39:22 10° W 09:42:42 71° S 09:46:01 10° E daylight
08 Nov - 11:16:00 10° W 11:19:13 47° SSW 11:22:26 10° SE daylight
08 Nov - 12:53:18 10° WSW 12:55:20 15° SW 12:57:21 10° S daylight
09 Nov - 07:13:51 10° SW 07:16:49 30° SSE 07:19:47 10° E daylight
09 Nov - 08:49:54 10° WSW 08:53:13 67° S 08:56:31 10° E daylight
09 Nov - 10:26:29 10° W 10:29:46 57° SSW 10:33:02 10° ESE daylight
09 Nov - 12:03:24 10° W 12:06:01 21° SSW 12:08:38 10° SSE daylight
